GRBBeta
1 60237U 24128C   26263.37380526  .00002088  00000-0  15133-3 0  9992
2 60237  61.9884 242.1526 0026667 155.5743 204.6621 15.07199001120619
Curium One
1 60242U 24128H   26263.46331312  .00004552  00000-0  26221-3 0  9995
2 60242  61.9773 228.0047 0025895 149.7466 210.5132 15.13678729120879
ROBUSTA-3A
1 60243U 24128J   26263.21918786  .00003765  00000-0  22452-3 0  9992
2 60243  61.9848 231.8835 0027915 146.8489 213.4363 15.12757014120791
CatSat
1 60246U 24125J   26263.34349612  .00102789  00000-0  75226-3 0  9995
2 60246  97.1934 117.9372 0015308 177.1617 182.9737 15.72731213122273
AO-123
1 61781U 24199AY  26263.58576630  .00005655  00000-0  15858-3 0  9998
2 61781  97.2840 131.4016 0012449 333.4040  26.6565 15.36912008148578
LASARsat
1 62391U 24247Q   26262.82201670  .00033498  00000-0  53930-3 0  9994
2 62391  44.9718  88.0673 0009767 232.1281 127.8728 15.52377278 97992
CroCube
1 62394U 24247T   26263.18876308  .00039307  00000-0  56570-3 0  9991
2 62394  44.9694  81.3716 0010454 243.9717 116.0101 15.55383057 98105
JINJUSat 1B
1 63210U 25052A   26263.26306636  .00012686  00000-0  36134-3 0  9990
2 63210  97.3860 160.2643 0005232  97.7669 262.4169 15.36221984 84682
NUSHSAT 1
1 63211U 25052B   26263.26102099  .00016632  00000-0  42585-3 0  9990
2 63211  97.3831 161.2068 0005004  99.9164 260.2647 15.39461537 84752
TEVEL2-4
1 63213U 25052D   26263.21936969  .00014223  00000-0  38600-3 0  9995
2 63213  97.3755 159.9100 0004505 109.0590 251.1143 15.37703937 84707
TEVEL2-5
1 63214U 25052E   26263.25216108  .00014186  00000-0  38782-3 0  9995
2 63214  97.3755 159.8605 0004368 110.2555 249.9160 15.37476873 84709
TEVEL2-6
1 63215U 25052F   26263.46184648  .00014212  00000-0  38886-3 0  9997
2 63215  97.3757 160.0562 0004306 110.5150 249.6557 15.37451961 84735
TEVEL2-1
1 63217U 25052H   26263.52750684  .00013997  00000-0  39110-3 0  9995
2 63217  97.3730 159.6241 0004291 119.4603 240.7070 15.36801986 84726
TEVEL2-3
1 63218U 25052J   26263.51798915  .00014068  00000-0  39209-3 0  9993
2 63218  97.3733 159.6517 0004032 119.3550 240.8098 15.36879949 84724
TEVEL2-2
1 63219U 25052K   26263.52707025  .00014006  00000-0  39116-3 0  9996
2 63219  97.3731 159.6282 0004307 119.9709 240.1963 15.36816644 84726
TEVEL2-9
1 63237U 25052AD  26263.43953344  .00012030  00000-0  36111-3 0  9990
2 63237  97.3791 158.6914 0006841 144.4385 215.7315 15.34573559 84622
TEVEL2-7
1 63238U 25052AE  26263.24006731  .00011372  00000-0  34556-3 0  9998
2 63238  97.3793 158.3628 0006719 146.4100 213.7571 15.34200015 84586
TEVEL2-8
1 63239U 25052AF  26263.24910583  .00011754  00000-0  35717-3 0  9992
2 63239  97.3792 158.3465 0006805 145.1781 214.9908 15.34190183 84583
SPIRONE
1 66657U 25274H   26263.44597022  .00001036  00000-0  10277-3 0  9992
2 66657  97.7484 191.3935 0013458  60.5566 299.6995 14.93858997 44449
K-HERO
1 66660U 25274L   26261.54984893  .00001759  00000-0  16893-3 0  9993
2 66660  97.7491 189.7520 0015417  69.9156 290.3722 14.94248246 44174
SNUGLITE-III DURI
1 66661U 25274M   26263.54517659  .00001425  00000-0  13789-3 0  9999
2 66661  97.7489 191.7414 0015970  64.8441 295.4434 14.94259111 44474
SAKHACUBE-CHOLBON
1 67290U 25313AU  26262.47528959  .00006672  00000-0  25897-3 0  9990
2 67290  97.3858 336.3909 0009481  32.4435 327.7385 15.26386511 40357
RS95S (QMR-KWT-2)
1 67291U 25313AV  26261.43871697  .00010335  00000-0  37511-3 0  9993
2 67291  97.3844 335.7841 0008824  33.4783 326.7013 15.28472222 40228
Ten-Koh2
1 68261U 25241B   26263.46677853  .00004081  00000-0  17505-3 0  9996
2 68261  51.6567 225.7887 0008222 102.0552 258.1348 15.24919814 29447
JACK-002
1 68417U 26067B   26263.62226165  .00004939  00000-0  22975-3 0  9999
2 68417  97.4672 221.1560 0001203  16.7091 343.4184 15.20414405 26449
DISCO 2
1 68431U 26067R   26263.39253516  .00005325  00000-0  24802-3 0  9990
2 68431  97.4705 220.9305 0003521  55.0440 305.1126 15.20328137 26408
HADES-SA (SpinnyONE)
1 68446U 26067AG  26263.37896080  .00013808  00000-0  60669-3 0  9999
2 68446  97.4489 220.4994 0009042  98.8417 261.3843 15.21992645 26394
PARUS-6U1
1 68456U 26067AS  26263.31076197  .00003884  00000-0  19218-3 0  9990
2 68456  97.4659 220.3222 0007462  92.4979 267.7109 15.18371679 26360
SAL-E
1 68458U 26067AU  26263.41224121  .00005295  00000-0  25654-3 0  9994
2 68458  97.4579 220.3219 0007741  98.9163 261.2948 15.18942988 26384
FSI-SAT 2
1 68792U 26088A   26263.35857254  .00003507  00000-0  23475-3 0  9993
2 68792  97.5199  50.3499 0015100 138.5731 221.6645 15.07473881 22621
OrigamiSat 2
1 68795U 26088D   26263.60573046  .00008722  00000-0  52951-3 0  9993
2 68795  97.5188  51.0882 0015717 110.2210 250.0712 15.10640561 22692
ARICA 2
1 68796U 26088E   26263.39923905  .00002587  00000-0  16676-3 0  9990
2 68796  97.5192  50.7369 0016913 110.5785 249.7261 15.09074875 22650
WASEDA-SAT-ZERO-II
1 68797U 26088F   26262.64357720  .00004134  00000-0  26074-3 0  9997
2 68797  97.5183  50.0502 0016405 112.7189 247.5777 15.09553759 22540
MANGARO-II-Piscus
1 68798U 26088G   26260.91223527  .00002637  00000-0  16847-3 0  9996
2 68798  97.5200  48.3924 0020044 121.2776 239.0419 15.09344135 22286
CO-128
1 69912U 26156AV  26263.24369358  .00000823  00000-0  88887-4 0  9992
2 69912  97.7472 162.3555 0000941 236.6683 123.4445 14.90954639 11162
MARINA
1 69920U 26156BD  26263.45252805  .00001336  00000-0  13668-3 0  9996
2 69920  97.7439 162.6688 0005843 265.8739  94.1812 14.92179346 11209
IO-86
1 40931U          26199.45381863  .00000000  00000-0  77536-4 0    07
2 40931   6.0006 322.6653 0012733 338.8432 273.6875 14.79294310    03
LILIUM-4                
1 71922C 26067AC  26089.50133053 -.00014632  00000+0 -74472-3 0    04
2 71922  97.4497  49.1617 0004341   5.9603 355.7042 15.16896692    16
